Find VisionCube

NORAD ID: 43822 Int'l Des: NNA 2018-099 Owner: KRAU Country: KR operational
LEOCIRCULARRETROGRADESSO

リアルタイム位置

3D地球を読み込み中...

VisionCubeについて

説明を読み込み中...

次回通過

Passes for default location (London). Set your location on the main map for personalized predictions.

高度履歴

Loading altitude history...

軌道要素

1 43822U 18099BS 26105.68984412 .00002748 00000-0 15496-3 0 9991
2 43822 97.4386 157.1878 0007487 195.7250 164.3751 15.13982499396769
Epoch: Apr 15, 2026 • Age: 9 hours

現在のステータス

高度 548.6 km
速度 7.59 km/s
衛星直下点 -60.24°S, 60.61°W
打ち上げ日 Dec 3, 2018
運用期間 7.3 years
タイプ other

技術仕様

分類 Payload
質量 2.00 kg
乾燥質量 2.00 kg
総質量 2.00 kg
長さ 0.20 m
直径 0.10 m
スパン 0.20 m
形状 Box
製造者 KRAU
バスタイプ Cubesat 2U
フェーズステータス In Orbit
所有者/国 KRAU/KR

Most Searched